Location: Unspecified
(0.0000°N, 0.0000°E)
Time: 07:53:14
(UTC+00:00)

Vanguard 1 - All Passes

Search period start: 22 August 2014 00:00
Search period end: 01 September 2014 00:00
Orbit: 650 x 3837 km, 34.2° (Epoch: 20 August)

Date Brightness Start Highest point End Pass type
(mag) Time Alt. Az. Time Alt. Az. Time Alt. Az.
22 Aug - 01:20:35 10° WNW 01:29:41 17° NW 01:36:28 10° N visible
22 Aug - 08:39:36 10° NNW 08:43:37 32° NE 08:48:43 10° ESE daylight
22 Aug - 10:59:18 10° W 11:04:17 32° SSW 11:12:05 10° SSE daylight
22 Aug - 13:25:09 10° SSW 13:29:26 13° S 13:34:43 10° SSE daylight
22 Aug - 15:51:14 10° SSW 16:00:03 16° SSE 16:10:51 10° SE daylight
22 Aug - 18:13:19 10° SSW 18:31:57 35° SSE 18:51:33 10° E visible
22 Aug - 20:37:13 10° SW 21:01:09 77° SE 21:19:30 10° ENE visible
22 Aug - 23:06:32 10° WSW 23:27:14 46° NW 23:40:32 10° NNE visible
23 Aug - 01:48:47 10° NW 01:52:10 11° NNW 01:55:10 10° NNW visible
23 Aug - 09:00:38 10° NW 09:05:02 63° NE 09:11:04 10° ESE daylight
23 Aug - 11:21:55 10° WSW 11:26:33 21° SSW 11:33:13 10° SSE daylight
23 Aug - 13:50:09 10° SSW 13:52:50 11° S 13:55:51 10° SSE daylight
23 Aug - 16:13:09 10° SSW 16:24:03 18° SSE 16:37:28 10° ESE daylight
23 Aug - 18:34:50 10° SSW 18:55:00 44° SSE 19:15:25 10° E visible
23 Aug - 20:59:21 10° SW 21:23:27 88° NW 21:41:23 10° NE visible
23 Aug - 23:30:42 10° W 23:49:15 35° NW 00:01:30 10° NNE visible
24 Aug - 09:22:05 10° WNW 09:26:34 69° SW 09:32:56 10° SE daylight
24 Aug - 11:45:16 10° SW 11:49:03 15° SSW 11:53:56 10° SSE daylight
24 Aug - 14:15:17 10° S 14:16:30 10° S 14:17:45 10° S daylight
24 Aug - 16:34:42 10° SSW 16:47:47 23° SSE 17:03:52 10° ESE daylight
24 Aug - 18:56:24 10° SW 19:17:46 54° SE 19:38:39 10° ENE visible
24 Aug - 21:21:49 10° WSW 21:45:38 73° NW 22:03:01 10° NE visible
24 Aug - 23:55:41 10° W 00:11:26 27° NW 00:22:18 10° NNE visible
25 Aug - 07:24:58 10° N 07:28:09 19° NE 07:31:23 10° E daylight
25 Aug - 09:43:57 10° W 09:48:17 38° SSW 09:54:24 10° SE daylight
25 Aug - 12:10:19 10° SSW 12:11:48 11° S 12:13:24 10° S daylight
25 Aug - 14:37:11 10° S 14:40:18 11° SSE 14:43:45 10° SSE daylight
25 Aug - 16:56:04 10° SSW 17:11:09 28° SSE 17:29:33 10° E daylight
25 Aug - 19:18:03 10° SW 19:40:19 66° SE 20:01:22 10° ENE visible
25 Aug - 21:44:41 10° WSW 22:07:46 59° NW 22:24:27 10° NE visible
26 Aug - 00:21:39 10° WNW 00:33:54 20° NW 00:42:53 10° N visible
26 Aug - 07:45:36 10° NNW 07:49:43 36° NE 07:54:07 10° ESE daylight
26 Aug - 10:06:21 10° W 10:10:15 23° SSW 10:15:27 10° SSE daylight
26 Aug - 14:58:13 10° S 15:04:06 13° SSE 15:11:08 10° SE daylight
26 Aug - 17:17:23 10° SSW 17:34:11 35° SSE 17:54:23 10° E daylight
26 Aug - 19:39:51 10° SW 20:02:44 80° SE 20:23:41 10° ENE visible
26 Aug - 22:08:05 10° WSW 22:29:56 47° NW 22:45:42 10° NNE visible
27 Aug - 00:48:49 10° WNW 00:56:42 14° NNW 01:03:02 10° N visible
27 Aug - 08:06:48 10° NW 08:11:13 74° NE 08:16:11 10° ESE daylight
27 Aug - 10:29:34 10° SW 10:32:26 14° SSW 10:35:54 10° S daylight
27 Aug - 15:19:09 10° S 15:27:44 16° SSE 15:38:33 10° ESE daylight
27 Aug - 17:38:42 10° SSW 17:56:56 44° SE 18:18:26 10° ENE daylight
27 Aug - 20:01:53 10° SW 20:25:04 86° NW 20:45:39 10° NE visible
27 Aug - 22:32:09 10° W 22:52:15 37° NW 23:06:50 10° NNE visible
28 Aug - 06:09:59 10° N 06:12:19 13° NNE 06:14:27 10° NE daylight
28 Aug - 08:28:27 10° WNW 08:32:45 54° SW 08:37:46 10° SE daylight
28 Aug - 15:40:06 10° SSW 15:51:04 21° SSE 16:05:25 10° ESE daylight
28 Aug - 18:00:05 10° SW 18:19:27 55° SE 18:41:50 10° ENE visible
28 Aug - 20:24:14 10° WSW 20:47:21 71° NW 21:07:23 10° NE visible
28 Aug - 22:57:01 10° W 23:14:47 29° NW 23:27:51 10° NNE visible
29 Aug - 06:30:08 10° NNW 06:34:13 23° NNE 06:37:46 10° E daylight
29 Aug - 08:50:35 10° W 08:54:25 28° SSW 08:58:55 10° SSE daylight
29 Aug - 16:01:05 10° SSW 16:14:03 27° SSE 16:31:24 10° E daylight
29 Aug - 18:21:36 10° SW 18:41:49 68° SE 19:04:40 10° ENE visible
29 Aug - 20:46:59 10° WSW 21:09:41 58° NW 21:28:55 10° NE visible
29 Aug - 23:22:48 10° WNW 23:37:37 22° NNW 23:48:48 10° NNE visible
30 Aug - 06:51:06 10° NW 06:55:54 44° NE 07:00:07 10° ESE daylight
30 Aug - 09:13:28 10° WSW 09:16:16 16° SSW 09:19:28 10° S daylight
30 Aug - 16:22:07 10° SSW 16:36:43 35° SE 16:56:27 10° E daylight
30 Aug - 18:43:18 10° SW 19:04:08 82° SE 19:27:05 10° NE visible
30 Aug - 21:10:15 10° WSW 21:32:07 47° NW 21:50:18 10° NNE visible
30 Aug - 23:49:31 10° WNW 00:00:48 17° NNW 00:09:39 10° N visible
31 Aug - 04:53:52 10° N 04:56:05 12° NNE 04:58:03 10° NE visible
31 Aug - 07:12:33 10° NW 07:17:28 90° NE 07:21:55 10° SE daylight
31 Aug - 14:25:57 10° S 14:31:52 13° SSE 14:39:08 10° SE daylight
31 Aug - 16:43:15 10° SSW 16:59:07 44° SE 17:20:41 10° ENE daylight
31 Aug - 19:05:14 10° SW 19:26:27 84° NW 19:49:11 10° NE visible
31 Aug - 21:34:10 10° W 21:54:45 37° NW 22:11:36 10° NNE visible
